QPF
0.09 0.08 0.06 0.07 0.07 0.07 0.10 0.11 0.12 0.11 0.07 0.05 0.05 0.06 0.08 0.06 0.06 0.06 0.04 0.08 0.11 0.11 0.11 0.10 0.09 0.08 0.09 0.08 0.07 0.05 0.04 0.04 0.05 0.05 0.05 0.05 0.05 0.04 0.04 0.04 0.04 0.03 0.03
0.07 0.07 0.06 0.06 0.06 0.06 0.09 0.12 0.13 0.11 0.09 0.07 0.07 0.08 0.10 0.09 0.09 0.10 0.10 0.08 0.09 0.08 0.09 0.11 0.10 0.09 0.10 0.09 0.09 0.07 0.05 0.05 0.05 0.05 0.05 0.04 0.05 0.05 0.05 0.04 0.04 0.05 0.04
0.06 0.06 0.06 0.06 0.07 0.07 0.08 0.09 0.12 0.14 0.12 0.12 0.14 0.16 0.11 0.10 0.11 0.13 0.16 0.16 0.12 0.09 0.09 0.10 0.11 0.09 0.09 0.09 0.09 0.08 0.06 0.05 0.05 0.06 0.06 0.05 0.04 0.05 0.05 0.05 0.05 0.05 0.04
0.06 0.04 0.05 0.07 0.08 0.09 0.08 0.08 0.11 0.16 0.14 0.13 0.13 0.12 0.09 0.09 0.09 0.14 0.18 0.15 0.13 0.10 0.09 0.09 0.08 0.08 0.08 0.08 0.08 0.08 0.07 0.06 0.06 0.07 0.06 0.06 0.05 0.05 0.04 0.04 0.04 0.04 0.04
0.07 0.05 0.06 0.07 0.07 0.07 0.06 0.08 0.11 0.14 0.14 0.12 0.09 0.09 0.08 0.07 0.07 0.09 0.12 0.12 0.09 0.07 0.07 0.08 0.08 0.08 0.08 0.09 0.08 0.08 0.09 0.10 0.10 0.08 0.07 0.06 0.06 0.05 0.04 0.04 0.04 0.04 0.05
0.07 0.05 0.04 0.06 0.06 0.06 0.07 0.09 0.10 0.11 0.11 0.11 0.09 0.08 0.07 0.06 0.06 0.08 0.07 0.08 0.07 0.06 0.07 0.06 0.06 0.06 0.06 0.07 0.06 0.07 0.09 0.11 0.12 0.10 0.08 0.08 0.07 0.06 0.05 0.04 0.04 0.04 0.05
0.07 0.05 0.05 0.04 0.04 0.05 0.07 0.07 0.08 0.08 0.08 0.08 0.09 0.08 0.08 0.07 0.06 0.07 0.06 0.06 0.06 0.07 0.08 0.05 0.04 0.04 0.03 0.04 0.05 0.06 0.07 0.09 0.11 0.12 0.10 0.10 0.08 0.05 0.05 0.06 0.05 0.05 0.05
0.08 0.07 0.05 0.04 0.04 0.04 0.06 0.08 0.08 0.06 0.05 0.06 0.08 0.09 0.07 0.05 0.04 0.04 0.04 0.03 0.04 0.06 0.07 0.05 0.04 0.04 0.03 0.03 0.03 0.03 0.04 0.06 0.08 0.09 0.10 0.09 0.07 0.05 0.04 0.05 0.06 0.05 0.04
0.09 0.07 0.07 0.07 0.06 0.06 0.06 0.06 0.06 0.06 0.05 0.05 0.07 0.07 0.06 0.04 0.03 0.03 0.03 0.02 0.02 0.03 0.04 0.05 0.05 0.04 0.03 0.03 0.03 0.03 0.02 0.03 0.05 0.06 0.09 0.10 0.08 0.06 0.05 0.05 0.05 0.06 0.05
0.11 0.08 0.09 0.09 0.08 0.09 0.08 0.07 0.06 0.05 0.06 0.05 0.06 0.06 0.05 0.04 0.03 0.04 0.04 0.04 0.04 0.04 0.03 0.03 0.04 0.04 0.04 0.03 0.03 0.03 0.02 0.02 0.03 0.03 0.05 0.08 0.09 0.08 0.07 0.06 0.05 0.06 0.06
0.12 0.09 0.09 0.08 0.08 0.08 0.08 0.07 0.05 0.05 0.05 0.04 0.05 0.05 0.06 0.06 0.05 0.04 0.04 0.04 0.05 0.04 0.04 0.04 0.04 0.04 0.04 0.04 0.04 0.05 0.04 0.03 0.02 0.03 0.03 0.04 0.06 0.08 0.08 0.08 0.07 0.07 0.07
0.11 0.08 0.07 0.07 0.07 0.06 0.05 0.05 0.06 0.06 0.06 0.05 0.05 0.05 0.05 0.05 0.05 0.05 0.04 0.03 0.04 0.04 0.03 0.03 0.03 0.03 0.03 0.04 0.04 0.06 0.05 0.04 0.03 0.02 0.02 0.03 0.04 0.05 0.06 0.07 0.08 0.07 0.08
0.08 0.07 0.05 0.05 0.05 0.05 0.05 0.06 0.07 0.08 0.07 0.07 0.07 0.07 0.06 0.06 0.07 0.07 0.06 0.04 0.04 0.03 0.02 0.02 0.02 0.02 0.03 0.04 0.03 0.04 0.04 0.04 0.02 0.02 0.02 0.02 0.03 0.05 0.05 0.05 0.06 0.07 0.07
0.06 0.05 0.05 0.04 0.05 0.06 0.07 0.08 0.09 0.10 0.10 0.11 0.10 0.10 0.10 0.09 0.09 0.09 0.08 0.08 0.06 0.03 0.02 0.02 0.02 0.02 0.02 0.03 0.04 0.05 0.04 0.03 0.02 0.02 0.02 0.02 0.02 0.03 0.04 0.04 0.03 0.04 0.05
0.06 0.04 0.05 0.06 0.08 0.09 0.09 0.09 0.11 0.12 0.11 0.11 0.12 0.11 0.10 0.10 0.10 0.09 0.09 0.08 0.07 0.06 0.04 0.03 0.03 0.03 0.04 0.04 0.04 0.04 0.03 0.03 0.03 0.02 0.02 0.02 0.02 0.03 0.03 0.03 0.03 0.03 0.04
0.04 0.05 0.07 0.07 0.07 0.07 0.09 0.11 0.11 0.11 0.10 0.10 0.11 0.11 0.10 0.10 0.10 0.08 0.07 0.06 0.06 0.06 0.06 0.04 0.03 0.03 0.04 0.04 0.06 0.05 0.04 0.04 0.04 0.02 0.02 0.01 0.02 0.02 0.03 0.03 0.03 0.03 0.03
0.04 0.04 0.05 0.05 0.04 0.05 0.06 0.07 0.08 0.09 0.09 0.09 0.10 0.10 0.09 0.09 0.08 0.08 0.06 0.04 0.04 0.04 0.05 0.05 0.04 0.04 0.03 0.04 0.06 0.06 0.05 0.05 0.04 0.03 0.02 0.02 0.02 0.02 0.02 0.02 0.03 0.03 0.03
0.02 0.03 0.04 0.04 0.03 0.02 0.02 0.02 0.03 0.04 0.06 0.06 0.07 0.08 0.09 0.08 0.07 0.06 0.05 0.04 0.04 0.04 0.05 0.05 0.05 0.04 0.03 0.03 0.05 0.06 0.06 0.05 0.04 0.03 0.03 0.03 0.03 0.02 0.02 0.02 0.02 0.03 0.03
0.02 0.03 0.04 0.03 0.02 0.01 0.02 0.02 0.02 0.03 0.04 0.05 0.07 0.08 0.09 0.07 0.07 0.06 0.05 0.05 0.05 0.06 0.07 0.07 0.06 0.05 0.05 0.04 0.04 0.06 0.09 0.08 0.05 0.04 0.03 0.03 0.03 0.02 0.02 0.02 0.02 0.03 0.03
0.02 0.03 0.03 0.03 0.03 0.03 0.02 0.03 0.05 0.06 0.07 0.08 0.10 0.09 0.09 0.08 0.07 0.06 0.06 0.05 0.05 0.06 0.07 0.07 0.05 0.05 0.05 0.06 0.06 0.06 0.07 0.08 0.08 0.06 0.05 0.04 0.04 0.03 0.03 0.02 0.03 0.03 0.03
0.04 0.04 0.04 0.04 0.03 0.03 0.03 0.03 0.04 0.05 0.06 0.06 0.07 0.07 0.07 0.08 0.07 0.07 0.07 0.06 0.05 0.05 0.05 0.05 0.04 0.05 0.05 0.06 0.06 0.05 0.05 0.06 0.06 0.05 0.05 0.04 0.04 0.04 0.04 0.03 0.03 0.03 0.03
0.05 0.05 0.05 0.04 0.03 0.04 0.05 0.04 0.04 0.03 0.03 0.04 0.05 0.05 0.05 0.04 0.04 0.04 0.04 0.04 0.05 0.05 0.05 0.05 0.04 0.04 0.05 0.06 0.05 0.05 0.05 0.04 0.04 0.04 0.04 0.04 0.04 0.05 0.05 0.05 0.04 0.04 0.03
0.06 0.05 0.04 0.03 0.03 0.03 0.03 0.03 0.04 0.03 0.03 0.03 0.04 0.05 0.05 0.04 0.04 0.03 0.03 0.04 0.03 0.03 0.04 0.05 0.05 0.05 0.05 0.05 0.04 0.04 0.05 0.04 0.04 0.04 0.04 0.04 0.03 0.03 0.03 0.03 0.04 0.04 0.04
0.05 0.04 0.03 0.02 0.01 0.01 0.02 0.04 0.04 0.03 0.03 0.03 0.03 0.03 0.03 0.03 0.03 0.03 0.03 0.03 0.03 0.03 0.04 0.04 0.05 0.04 0.04 0.03 0.03 0.03 0.04 0.03 0.03 0.04 0.03 0.04 0.03 0.02 0.01 0.01 0.02 0.01 0.02
0.04 0.03 0.03 0.02 0.01 0.01 0.01 0.02 0.04 0.04 0.03 0.03 0.03 0.02 0.02 0.03 0.03 0.03 0.03 0.03 0.03 0.04 0.04 0.04 0.04 0.04 0.04 0.03 0.03 0.03 0.03 0.03 0.03 0.02 0.02 0.02 0.02 0.02 0.01 0.01 0.01 0.01 0.01
0.03 0.03 0.03 0.02 0.01 0.01 0.01 0.02 0.02 0.02 0.02 0.02 0.02 0.02 0.01 0.01 0.03 0.03 0.03 0.04 0.04 0.04 0.04 0.03 0.02 0.02 0.02 0.02 0.02 0.02 0.02 0.02 0.02 0.02 0.01 0.01 0.02 0.01 0.02 0.01 0.01 0.02 0.02
MSLP
1008.29 1008.62 1008.80 1008.90 1008.99 1009.13 1009.35 1009.65 1010.03 1010.43 1010.81 1011.13 1011.37 1011.53 1011.63 1011.69 1011.75 1011.81 1011.89 1011.99 1012.10 1012.21 1012.32 1012.44 1012.58 1012.75 1012.95 1013.20 1013.48 1013.77 1014.06 1014.33 1014.56 1014.76 1014.94 1015.11 1015.31 1015.53 1015.79 1016.06 1016.34 1016.59 1016.82
1007.61 1008.02 1008.29 1008.47 1008.63 1008.81 1009.05 1009.35 1009.71 1010.08 1010.44 1010.76 1011.01 1011.18 1011.30 1011.38 1011.44 1011.50 1011.56 1011.64 1011.72 1011.81 1011.91 1012.03 1012.17 1012.34 1012.55 1012.78 1013.04 1013.31 1013.56 1013.79 1014.00 1014.19 1014.38 1014.58 1014.81 1015.07 1015.36 1015.67 1015.97 1016.24 1016.47
1006.77 1007.28 1007.66 1007.97 1008.23 1008.48 1008.77 1009.09 1009.44 1009.80 1010.14 1010.44 1010.69 1010.87 1011.00 1011.08 1011.14 1011.19 1011.23 1011.27 1011.33 1011.39 1011.48 1011.59 1011.73 1011.90 1012.11 1012.34 1012.58 1012.82 1013.04 1013.24 1013.42 1013.59 1013.78 1013.99 1014.24 1014.54 1014.86 1015.20 1015.53 1015.82 1016.07
1005.85 1006.45 1006.95 1007.39 1007.77 1008.13 1008.48 1008.84 1009.19 1009.54 1009.87 1010.16 1010.40 1010.58 1010.72 1010.81 1010.87 1010.90 1010.91 1010.92 1010.94 1010.97 1011.03 1011.13 1011.26 1011.44 1011.65 1011.87 1012.10 1012.32 1012.51 1012.68 1012.83 1012.98 1013.16 1013.37 1013.63 1013.94 1014.29 1014.65 1015.00 1015.32 1015.59
1004.89 1005.56 1006.18 1006.74 1007.25 1007.71 1008.14 1008.54 1008.92 1009.27 1009.59 1009.87 1010.11 1010.31 1010.45 1010.56 1010.61 1010.63 1010.63 1010.61 1010.58 1010.58 1010.61 1010.69 1010.81 1010.99 1011.19 1011.42 1011.64 1011.83 1012.00 1012.14 1012.26 1012.39 1012.54 1012.73 1012.98 1013.29 1013.64 1014.01 1014.37 1014.71 1015.00
1003.98 1004.69 1005.39 1006.05 1006.66 1007.22 1007.72 1008.16 1008.56 1008.92 1009.25 1009.54 1009.79 1010.01 1010.19 1010.31 1010.39 1010.41 1010.40 1010.35 1010.30 1010.26 1010.26 1010.31 1010.42 1010.59 1010.79 1011.01 1011.22 1011.41 1011.56 1011.67 1011.76 1011.85 1011.96 1012.11 1012.33 1012.61 1012.93 1013.29 1013.65 1014.00 1014.31
1003.19 1003.89 1004.63 1005.35 1006.03 1006.65 1007.20 1007.68 1008.10 1008.48 1008.82 1009.13 1009.41 1009.67 1009.90 1010.07 1010.19 1010.24 1010.23 1010.18 1010.11 1010.05 1010.02 1010.05 1010.14 1010.29 1010.48 1010.70 1010.90 1011.07 1011.20 1011.29 1011.34 1011.38 1011.44 1011.53 1011.69 1011.91 1012.19 1012.51 1012.85 1013.20 1013.52
1002.56 1003.22 1003.95 1004.69 1005.40 1006.05 1006.62 1007.12 1007.55 1007.94 1008.29 1008.63 1008.96 1009.28 1009.57 1009.81 1009.99 1010.09 1010.12 1010.08 1010.01 1009.94 1009.89 1009.90 1009.98 1010.11 1010.29 1010.50 1010.69 1010.84 1010.95 1011.00 1011.01 1010.99 1010.98 1011.01 1011.09 1011.23 1011.44 1011.70 1012.00 1012.32 1012.65
1002.09 1002.69 1003.38 1004.10 1004.80 1005.45 1006.02 1006.51 1006.94 1007.33 1007.69 1008.07 1008.45 1008.83 1009.19 1009.51 1009.77 1009.94 1010.03 1010.03 1009.99 1009.93 1009.88 1009.88 1009.94 1010.06 1010.23 1010.41 1010.58 1010.71 1010.79 1010.80 1010.75 1010.67 1010.59 1010.53 1010.51 1010.56 1010.68 1010.87 1011.11 1011.40 1011.72
1001.76 1002.29 1002.93 1003.62 1004.29 1004.91 1005.46 1005.92 1006.33 1006.70 1007.07 1007.46 1007.88 1008.31 1008.75 1009.16 1009.51 1009.76 1009.93 1010.00 1010.01 1009.98 1009.95 1009.95 1010.01 1010.11 1010.26 1010.42 1010.56 1010.65 1010.68 1010.64 1010.54 1010.39 1010.22 1010.07 1009.96 1009.91 1009.93 1010.03 1010.21 1010.46 1010.76
1001.48 1001.98 1002.59 1003.24 1003.89 1004.47 1004.98 1005.41 1005.78 1006.12 1006.47 1006.85 1007.29 1007.77 1008.26 1008.75 1009.18 1009.53 1009.78 1009.93 1010.00 1010.03 1010.04 1010.07 1010.13 1010.22 1010.34 1010.46 1010.56 1010.61 1010.58 1010.48 1010.31 1010.09 1009.85 1009.61 1009.41 1009.26 1009.20 1009.22 1009.33 1009.52 1009.79
1001.18 1001.68 1002.29 1002.95 1003.58 1004.14 1004.62 1005.01 1005.33 1005.63 1005.94 1006.30 1006.73 1007.22 1007.75 1008.28 1008.78 1009.21 1009.55 1009.79 1009.95 1010.05 1010.11 1010.17 1010.25 1010.33 1010.43 1010.51 1010.56 1010.54 1010.45 1010.29 1010.05 1009.75 1009.44 1009.12 1008.84 1008.62 1008.48 1008.43 1008.48 1008.62 1008.86
1000.79 1001.35 1002.00 1002.69 1003.34 1003.91 1004.37 1004.73 1005.01 1005.26 1005.53 1005.85 1006.24 1006.71 1007.24 1007.80 1008.35 1008.84 1009.25 1009.58 1009.82 1010.00 1010.13 1010.24 1010.33 1010.41 1010.48 1010.52 1010.51 1010.43 1010.27 1010.03 1009.72 1009.37 1008.99 1008.62 1008.28 1008.00 1007.80 1007.70 1007.70 1007.80 1007.99
1000.28 1000.93 1001.68 1002.44 1003.15 1003.75 1004.22 1004.57 1004.83 1005.04 1005.25 1005.52 1005.86 1006.30 1006.80 1007.35 1007.91 1008.44 1008.91 1009.31 1009.63 1009.89 1010.08 1010.24 1010.36 1010.44 1010.49 1010.49 1010.41 1010.27 1010.03 1009.73 1009.36 1008.94 1008.52 1008.11 1007.74 1007.43 1007.20 1007.06 1007.02 1007.07 1007.23
999.67 1000.45 1001.31 1002.17 1002.96 1003.63 1004.14 1004.51 1004.76 1004.95 1005.12 1005.34 1005.63 1006.01 1006.47 1006.99 1007.54 1008.08 1008.58 1009.03 1009.41 1009.73 1009.98 1010.19 1010.33 1010.43 1010.46 1010.41 1010.29 1010.07 1009.78 1009.41 1008.99 1008.54 1008.08 1007.65 1007.27 1006.95 1006.70 1006.54 1006.47 1006.49 1006.60
999.03 999.93 1000.91 1001.88 1002.76 1003.51 1004.08 1004.50 1004.78 1004.97 1005.14 1005.32 1005.57 1005.90 1006.31 1006.78 1007.29 1007.81 1008.32 1008.78 1009.20 1009.56 1009.86 1010.10 1010.28 1010.38 1010.40 1010.33 1010.16 1009.90 1009.55 1009.14 1008.68 1008.20 1007.74 1007.30 1006.92 1006.60 1006.35 1006.19 1006.09 1006.08 1006.14
998.48 999.47 1000.54 1001.59 1002.56 1003.38 1004.03 1004.51 1004.85 1005.09 1005.27 1005.46 1005.69 1005.98 1006.34 1006.76 1007.22 1007.70 1008.18 1008.64 1009.06 1009.43 1009.76 1010.03 1010.22 1010.33 1010.35 1010.26 1010.07 1009.78 1009.41 1008.97 1008.49 1008.01 1007.54 1007.12 1006.75 1006.44 1006.20 1006.02 1005.91 1005.86 1005.87
998.11 999.14 1000.25 1001.35 1002.37 1003.26 1003.98 1004.54 1004.96 1005.27 1005.51 1005.74 1005.98 1006.26 1006.59 1006.96 1007.36 1007.78 1008.21 1008.62 1009.02 1009.38 1009.71 1009.98 1010.18 1010.30 1010.32 1010.23 1010.04 1009.75 1009.37 1008.93 1008.46 1007.98 1007.53 1007.12 1006.77 1006.48 1006.24 1006.06 1005.92 1005.83 1005.79
998.03 999.03 1000.12 1001.21 1002.25 1003.17 1003.96 1004.59 1005.10 1005.50 1005.83 1006.12 1006.41 1006.70 1007.01 1007.35 1007.69 1008.04 1008.40 1008.75 1009.09 1009.42 1009.71 1009.97 1010.17 1010.30 1010.33 1010.26 1010.08 1009.80 1009.44 1009.03 1008.58 1008.13 1007.70 1007.32 1006.98 1006.70 1006.46 1006.27 1006.10 1005.97 1005.87
998.27 999.19 1000.20 1001.24 1002.24 1003.17 1003.99 1004.69 1005.28 1005.79 1006.21 1006.60 1006.94 1007.27 1007.59 1007.89 1008.18 1008.46 1008.74 1009.00 1009.27 1009.53 1009.78 1010.01 1010.19 1010.32 1010.36 1010.31 1010.17 1009.93 1009.61 1009.23 1008.83 1008.41 1008.02 1007.66 1007.35 1007.07 1006.83 1006.62 1006.43 1006.26 1006.11
998.84 999.63 1000.53 1001.46 1002.40 1003.29 1004.12 1004.86 1005.53 1006.13 1006.66 1007.13 1007.55 1007.93 1008.25 1008.53 1008.78 1008.98 1009.17 1009.35 1009.52 1009.70 1009.89 1010.07 1010.23 1010.35 1010.40 1010.38 1010.28 1010.09 1009.82 1009.50 1009.14 1008.78 1008.43 1008.10 1007.80 1007.53 1007.28 1007.06 1006.84 1006.64 1006.45
999.68 1000.34 1001.10 1001.92 1002.75 1003.59 1004.39 1005.16 1005.88 1006.55 1007.16 1007.71 1008.20 1008.61 1008.95 1009.22 1009.41 1009.55 1009.65 1009.73 1009.81 1009.90 1010.02 1010.14 1010.27 1010.37 1010.44 1010.44 1010.38 1010.24 1010.03 1009.77 1009.47 1009.16 1008.85 1008.55 1008.27 1008.01 1007.77 1007.53 1007.29 1007.07 1006.85
1000.74 1001.27 1001.90 1002.59 1003.33 1004.09 1004.85 1005.61 1006.34 1007.05 1007.71 1008.32 1008.85 1009.29 1009.63 1009.88 1010.03 1010.10 1010.12 1010.11 1010.11 1010.12 1010.15 1010.22 1010.30 1010.39 1010.45 1010.48 1010.44 1010.35 1010.19 1009.99 1009.75 1009.49 1009.22 1008.96 1008.70 1008.46 1008.22 1007.98 1007.74 1007.50 1007.27
1001.93 1002.37 1002.89 1003.48 1004.12 1004.79 1005.50 1006.22 1006.94 1007.65 1008.32 1008.94 1009.48 1009.92 1010.25 1010.47 1010.58 1010.60 1010.55 1010.47 1010.39 1010.33 1010.30 1010.31 1010.35 1010.40 1010.46 1010.49 1010.47 1010.41 1010.29 1010.13 1009.94 1009.72 1009.50 1009.27 1009.04 1008.82 1008.59 1008.36 1008.12 1007.89 1007.66
1003.18 1003.57 1004.02 1004.53 1005.09 1005.69 1006.33 1006.99 1007.66 1008.33 1008.98 1009.57 1010.09 1010.50 1010.80 1010.98 1011.05 1011.02 1010.93 1010.79 1010.65 1010.53 1010.45 1010.41 1010.42 1010.44 1010.47 1010.49 1010.48 1010.43 1010.33 1010.20 1010.04 1009.85 1009.66 1009.46 1009.27 1009.07 1008.86 1008.65 1008.42 1008.20 1007.99
1004.44 1004.82 1005.24 1005.69 1006.19 1006.72 1007.28 1007.87 1008.48 1009.08 1009.66 1010.20 1010.65 1011.02 1011.27 1011.41 1011.44 1011.37 1011.24 1011.08 1010.90 1010.75 1010.64 1010.56 1010.53 1010.52 1010.52 1010.52 1010.49 1010.43 1010.34 1010.21 1010.06 1009.90 1009.72 1009.55 1009.38 1009.20 1009.02 1008.82 1008.62 1008.41 1008.21
Thickness
5726 5724 5722 5720 5717 5716 5714 5712 5710 5708 5707 5706 5705 5705 5704 5703 5703 5704 5705 5706 5707 5707 5707 5707 5706 5706 5705 5704 5704 5703 5702 5701 5700 5699 5699 5698 5697 5697 5696 5695 5695 5694 5694
5722 5720 5718 5716 5714 5712 5710 5708 5707 5705 5703 5702 5701 5701 5701 5701 5700 5701 5702 5703 5704 5704 5704 5703 5703 5703 5702 5702 5701 5701 5700 5700 5699 5697 5696 5695 5695 5695 5694 5693 5693 5693 5693
5717 5715 5713 5711 5710 5708 5706 5704 5702 5700 5699 5697 5696 5696 5697 5697 5697 5698 5699 5699 5700 5700 5700 5699 5699 5700 5700 5700 5699 5698 5697 5697 5696 5695 5694 5693 5693 5692 5691 5691 5691 5691 5691
5713 5710 5707 5706 5705 5704 5701 5699 5697 5695 5693 5692 5691 5692 5693 5693 5694 5694 5694 5695 5695 5696 5696 5696 5696 5696 5697 5697 5696 5696 5695 5694 5693 5693 5692 5691 5690 5690 5689 5689 5689 5689 5689
5708 5705 5703 5701 5700 5699 5696 5695 5692 5690 5688 5687 5687 5688 5688 5689 5690 5690 5690 5690 5690 5690 5691 5692 5692 5692 5693 5693 5693 5693 5692 5692 5691 5690 5689 5688 5688 5687 5687 5687 5687 5687 5687
5702 5700 5698 5696 5694 5692 5690 5689 5687 5686 5684 5682 5684 5684 5683 5684 5685 5685 5685 5685 5685 5686 5687 5687 5688 5688 5689 5689 5689 5690 5689 5689 5688 5687 5686 5686 5685 5685 5685 5685 5685 5685 5685
5696 5693 5692 5690 5688 5686 5684 5683 5681 5679 5677 5676 5674 5673 5675 5678 5679 5679 5680 5679 5679 5681 5681 5682 5683 5684 5684 5684 5685 5685 5685 5685 5685 5684 5683 5683 5683 5683 5683 5683 5683 5683 5683
5691 5689 5685 5683 5681 5679 5678 5676 5675 5673 5671 5670 5666 5662 5661 5665 5670 5674 5674 5674 5674 5675 5675 5676 5677 5678 5679 5679 5680 5680 5680 5680 5680 5680 5680 5680 5680 5680 5680 5681 5681 5681 5680
5684 5682 5680 5677 5675 5673 5672 5671 5669 5667 5664 5664 5662 5658 5653 5653 5658 5663 5666 5668 5668 5668 5669 5670 5671 5672 5673 5673 5674 5674 5675 5675 5676 5677 5677 5677 5677 5677 5677 5678 5678 5678 5678
5677 5676 5674 5672 5670 5668 5667 5665 5664 5662 5660 5657 5656 5656 5654 5653 5649 5651 5656 5660 5661 5662 5662 5664 5665 5666 5667 5668 5668 5669 5670 5671 5671 5672 5673 5673 5674 5674 5675 5675 5676 5676 5676
5672 5670 5668 5667 5665 5664 5662 5661 5659 5657 5655 5653 5651 5650 5648 5647 5646 5644 5644 5649 5651 5655 5657 5658 5659 5660 5662 5662 5663 5663 5664 5665 5666 5667 5667 5668 5669 5670 5672 5672 5672 5673 5673
5666 5665 5664 5662 5661 5659 5658 5656 5655 5653 5651 5649 5648 5646 5644 5641 5640 5639 5638 5639 5642 5646 5650 5652 5653 5655 5656 5657 5657 5658 5659 5660 5661 5662 5662 5663 5664 5666 5667 5667 5668 5669 5670
5659 5659 5659 5658 5657 5655 5653 5652 5650 5648 5647 5645 5644 5643 5641 5640 5639 5637 5635 5634 5635 5638 5642 5645 5647 5649 5651 5651 5652 5653 5653 5654 5655 5657 5657 5658 5659 5660 5661 5663 5663 5665 5666
5655 5655 5654 5653 5652 5651 5649 5648 5646 5644 5643 5642 5641 5640 5638 5638 5636 5634 5632 5630 5628 5629 5632 5637 5641 5643 5645 5646 5647 5647 5648 5648 5650 5651 5651 5652 5653 5654 5656 5657 5658 5660 5661
5651 5651 5649 5647 5646 5645 5645 5644 5642 5641 5639 5638 5637 5636 5635 5635 5633 5631 5630 5628 5624 5623 5625 5629 5632 5636 5638 5640 5641 5641 5642 5643 5644 5645 5645 5646 5647 5648 5650 5651 5653 5654 5656
5646 5645 5644 5642 5641 5640 5640 5639 5637 5636 5634 5634 5633 5632 5631 5631 5629 5628 5626 5624 5622 5620 5619 5624 5627 5630 5632 5633 5634 5635 5636 5637 5638 5639 5640 5640 5641 5642 5644 5645 5647 5648 5649
5641 5640 5639 5637 5636 5635 5635 5633 5632 5630 5629 5628 5629 5628 5627 5626 5624 5623 5622 5620 5619 5617 5615 5619 5621 5623 5624 5625 5627 5628 5629 5630 5631 5632 5633 5634 5635 5636 5637 5639 5640 5641 5643
5637 5636 5635 5633 5632 5631 5630 5628 5627 5626 5624 5623 5624 5623 5623 5623 5620 5619 5618 5616 5615 5613 5611 5611 5613 5615 5617 5618 5619 5620 5622 5623 5624 5625 5626 5627 5628 5630 5630 5632 5633 5634 5635
5632 5631 5630 5628 5627 5626 5625 5624 5623 5622 5621 5620 5620 5618 5618 5617 5615 5614 5613 5611 5610 5609 5607 5605 5606 5607 5609 5611 5611 5613 5614 5615 5617 5618 5620 5621 5622 5623 5624 5625 5627 5628 5629
5627 5626 5625 5624 5623 5622 5621 5621 5619 5618 5617 5616 5616 5615 5614 5612 5611 5610 5608 5606 5604 5603 5602 5600 5600 5600 5601 5603 5603 5603 5605 5607 5609 5612 5613 5614 5615 5616 5617 5619 5620 5620 5621
5624 5622 5621 5619 5618 5617 5617 5616 5615 5615 5613 5612 5611 5611 5610 5609 5608 5606 5604 5601 5599 5597 5596 5595 5594 5594 5594 5595 5595 5596 5596 5598 5600 5603 5604 5606 5607 5608 5610 5611 5613 5614 5615
5619 5618 5616 5614 5613 5614 5613 5612 5612 5610 5608 5606 5606 5606 5606 5605 5603 5602 5600 5598 5596 5593 5591 5590 5589 5588 5589 5590 5590 5590 5588 5589 5591 5595 5596 5598 5600 5601 5602 5604 5607 5608 5608
5614 5612 5611 5610 5609 5609 5609 5609 5608 5606 5603 5602 5601 5600 5601 5600 5597 5596 5595 5594 5592 5591 5589 5587 5585 5584 5584 5585 5584 5584 5583 5583 5585 5588 5588 5590 5592 5594 5597 5599 5600 5601 5602
5610 5608 5608 5607 5606 5607 5607 5605 5604 5602 5599 5597 5596 5595 5594 5594 5593 5590 5589 5587 5586 5585 5584 5583 5582 5582 5582 5581 5580 5580 5579 5578 5580 5581 5582 5582 5585 5587 5592 5593 5594 5595 5596
5607 5606 5605 5604 5604 5604 5604 5603 5601 5597 5594 5593 5592 5591 5589 5588 5588 5585 5583 5581 5580 5580 5580 5579 5578 5578 5577 5577 5576 5574 5573 5572 5572 5575 5576 5576 5579 5580 5583 5586 5588 5589 5589
5605 5605 5603 5602 5602 5601 5601 5599 5597 5593 5590 5589 5588 5587 5586 5585 5583 5582 5578 5575 5574 5574 5574 5574 5573 5573 5573 5573 5573 5571 5569 5567 5566 5567 5571 5570 5572 5573 5575 5579 5582 5583 5583